Other Public Products
Issued by NWS Grand Forks, ND

Home | Current Version | Previous Version | Text Only | Print | Product List | Glossary On
Versions: 1 2 3 4 5 6 7 8 9 10 11 12 13 14 15 16 17 18 19 20 21 22 23 24 25 26 27 28 29 30 31 32 33 34 35 36 37 38 39 40 41 42 43 44 45 46 47 48 49 50
000
FPUS83 KFGF 270231
OPUFGF
PRAIRIE TO PINES WEATHER ROUNDUP
NATIONAL WEATHER SERVICE EASTERN NORTH DAKOTA/GRAND FORKS ND
900 PM CDT TUE JUL 26 2016

 **SATELLITE DATA USED TO AUGMENT SKY COVER AT AUTOMATED STATIONS**
 *****  WEATHER ACROSS EASTERN NORTH DAKOTA  *****

CITY           SKY/WX    TMP DP  RH WIND       PRES   REMARKS
GRAND FORKS    CLOUDY    75  64  68 N9        29.97S
GRAND FORKS AF CLOUDY    72  66  79 N8        29.99R
GRAND CITY NWS   N/A     72 N/A N/A NE3         N/A
BUXTON           N/A     77  74  92 N5          N/A
DEVILS LAKE    CLOUDY    68  65  90 SW3       30.05R
FARGO          LGT RAIN  73  67  81 SW6       29.94S
WAHPETON ARPT  CLOUDY    72  63  73 NW7       29.96F
$$

 *****  WEATHER ACROSS CENTRAL AND WESTERN NORTH DAKOTA  *****

CITY           SKY/WX    TMP DP  RH WIND       PRES   REMARKS
JAMESTOWN      LGT RAIN  70  68  93 NE6       29.99S
BISMARCK       MOCLDY    75  60  59 NE9       30.02R
MINOT          MOCLDY    73  60  63 N7        30.04F
MINOT AFB      CLOUDY    72  57  60 N6        30.03F
GARRISON         N/A     70  62  76 N7        30.04S
WILLISTON      PTCLDY    76  55  48 NE8       30.06S
DICKINSON      CLEAR     68  58  70 E5        30.05S
HETTINGER      CLEAR     74  61  63 NE17      30.07R
$$

 *****  OTHER OBSERVATIONS NORTHEAST NORTH DAKOTA  *****

CITY           SKY/WX    TMP DP  RH WIND       PRES   REMARKS
WALHALLA       FAIR      68  66  94 N7        30.03S
LANGDON        FAIR      68  63  83 NE9       30.05F
CAVALIER       MOCLDY    72  63  73 N8        30.02S
GRAFTON        FAIR      72  63  73 N8        30.02R
CANDO          FAIR      68  66  94 CALM      30.06F
FORT TOTTEN      N/A     65  65  99 SE2       29.95S
ROLLA          FAIR      66  66 100 E5        30.07F
RUGBY          NOT AVBL
 ***** THE ABOVE OBSERVATIONS ARE NON NWS ARE NOT QUALITY
        CONTROLLED AND MAY MIS-REPORT RAIN FOR SNOW...
$$

 *****  OTHER OBSERVATIONS SOUTHEAST NORTH DAKOTA *****

CITY           SKY/WX    TMP DP  RH WIND       PRES   REMARKS
COOPERSTOWN    NOT AVBL
VALLEY CITY    LGT RAIN  66  66 100 E5        30.02F
OAKES            N/A    N/A N/A N/A MISG        N/A
GWINNER        FAIR      72  66  83 CALM      29.99R
SHEYENNE NWR     N/A     73  65  76 N3        29.95S
BUFFALO          N/A     68  65  91 N5          N/A
WYNDMERE         N/A     73  66  78 NW3         N/A
 ***** THE ABOVE OBSERVATIONS ARE NON NWS ARE NOT QUALITY
       CONTROLLED AND MAY MIS-REPORT RAIN FOR SNOW...
$$

  *****  WEATHER ACROSS NORTHERN MINNESOTA  *****

CITY           SKY/WX    TMP DP  RH WIND       PRES   REMARKS
FLAG ISLAND    CLOUDY    73  57  56 N10       29.99R
WARROAD        CLOUDY    73  61  64 N6        30.00R
ROSEAU         CLOUDY    70  63  78 N3        30.01R
HALLOCK        CLOUDY    72  63  73 N6        30.00R
THF RVR FALLS  CLOUDY    73  65  75 NE7       29.99S
HALSTAD          N/A     74  70  86 NW8         N/A
FOSSTON        CLOUDY    70  64  83 CALM      29.98R
BAUDETTE       MOCLDY    72  61  68 N3        29.98R
WASKISH        CLOUDY    72  64  78 N3        29.98S
CROOKSTON      CLOUDY    73  66  78 N6        29.97S
$$
  *****  WEATHER ACROSS CENTRAL AND WEST MINNESOTA  *****

CITY           SKY/WX    TMP DP  RH WIND       PRES   REMARKS
BEMIDJI        CLOUDY    73  66  78 N6        29.97S
PARK RAPIDS    PTCLDY    76  69  79 CALM      29.96R
WADENA         CLOUDY    66  63  88 W5        29.97R
DETROIT LAKES  LGT RAIN  75  70  83 SW3       29.98R
MOORHEAD       CLOUDY    70  66  88 W6        29.94F
FERGUS FALLS   PTCLDY    72  66  83 CALM      29.97S
ELBOW LAKE     FAIR      71  68  91 SW6       29.97F
MORRIS MN      CLOUDY    73  68  83 NE3       29.97S
STAPLES        CLEAR     66  61  82 CALM      29.97R
WHEATON        CLOUDY    73  68  83 CALM      29.98S
$$
  *****  WEATHER ELSEWHERE ACROSS MINNESOTA  *****

CITY           SKY/WX    TMP DP  RH WIND       PRES   REMARKS
DULUTH         CLOUDY    74  68  81 NW5       29.97F
INTRNTL FALLS  PTCLDY    69  58  67 NW5       29.97R
ELY            CLOUDY    70  64  83 CALM      29.98R
CLOQUET        CLOUDY    73  61  64 SW12G17   29.99R
BRAINERD       PTCLDY    69  64  84 N3        29.96F
HIBBING        PTCLDY    69  64  84 N3        29.96F
ALEXANDRIA     CLOUDY    69  65  86 SW5       30.00R
SAINT CLOUD    CLOUDY    71  64  78 CALM      29.96F
MINNEAPOLIS    MOCLDY    85  67  54 SW8       29.95S
$$

  *****  WEATHER ACROSS SOUTH DAKOTA  *****

CITY           SKY/WX    TMP DP  RH WIND       PRES   REMARKS
SIOUX FALLS    CLOUDY    80  65  59 S15       29.97S
BROOKINGS      CLOUDY    75  71  87 SE8       29.96S
WATERTOWN      CLOUDY    74  64  71 CALM      29.97R
HURON          CLOUDY    79  67  66 SE8       29.89S
SISSETON         N/A     70  69  97 CALM      29.96F
ABERDEEN       MOCLDY    74  67  78 NE6       29.95S
MITCHELL       CLOUDY    84  66  54 S25G31    29.89F
PIERRE         MOCLDY    73  64  73 CALM      29.89F
MOBRIDGE       MOCLDY    80  67  64 NE8       29.94R
RAPID CITY     CLOUDY    79  55  43 N16       29.98S
$$

  *****  SOME WEATHER IN NEARBY STATES *****

CITY           SKY/WX    TMP DP  RH WIND       PRES   REMARKS
GLASGOW MT     MOCLDY    74  59  59 NE17      30.01F
GREAT FALLS MT CLOUDY    69  54  58 SE12      30.09R
CHEYENNE WY    PTCLDY    78  39  24 S6        30.17R
SCOTTSBLUFF NE CLOUDY    83  45  26 S6        29.99S
OMAHA NE       PTCLDY    81  68  64 E6        29.99S
DES MOINES IA  PTCLDY    80  66  62 SE8       29.99F
DAVENPORT IA   CLEAR     72  67  84 NE5       30.02F
CHICAGO IL     PTCLDY    80  62  54 E6        30.00F
EAU CLAIRE WI  CLOUDY    79  69  71 SW5       29.96S
LA CROSSE WI   CLEAR     80  69  69 SW7       29.97S
$$

  *****  SOME NATIONAL WEATHER *****

CITY           SKY/WX    TMP DP  RH WIND       PRES   REMARKS
LA GUARDIA NY  MOCLDY    85  61  44 NW9       29.90R
RALEIGH NC     CLOUDY    78  73  84 W12       29.99R THUNDER
ATLANTA GA     PTCLDY    85  70  60 SW10      30.03R
NEW ORLEANS LA CLOUDY    79  73  82 SW9       29.95R
OKLAHOMA CITY  MOCLDY    81  70  69 SE8       29.95R
ALBUQUERQUE NM MOCLDY    87  50  27 N16       30.11R
SALT LAKE CITY PTCLDY    98  22   6 NE7       29.97F HX  91
LOS ANGELES CA MOSUNNY   73  66  78 W14       29.84R
BOISE ID       SUNNY     97  37  12 NW12      29.91S HX  92
SEATTLE WA     MOSUNNY   77  60  55 W6        30.10F
$$

*** WEATHER ACROSS MANITOBA...SASKATCHEWAN AND ONTARIO ***
                ***ONTARIO***

CITY           SKY/WX    TMP DP  RH WIND       PRES   REMARKS
GERALDTON      PTCLDY    70  54  56 NW3       29.89R
THUNDER BAY    PTCLDY    73  55  53 N3        29.90R
SIOUX LOOKOUT  MOCLDY    59  55  88 N2        29.97S
TORONTO        CLEAR     79  59  50 N8        29.96R
BIG TROUT LK   NOT AVBL
PICKLE LAKE    PTCLDY    64  52  63 N5        29.99R
DRYDEN         CLEAR     70  52  52 N5        29.98F
KENORA         MOCLDY    72  50  46 N8        30.01S
$$
                *** MANITOBA***

CITY           SKY/WX    TMP DP  RH WIND       PRES   REMARKS
BRANDON        MOCLDY    68  61  77 E8        30.07S
DAUPHIN        PTCLDY    64  55  72 N6        30.09S
ISLAND LAKE    MOCLDY    61  57  88 N5        30.08S
PILOT MOUND      N/A     68  59  73 NE6         N/A
THE PAS        PTCLDY    70  48  46 CALM      30.09F
THOMPSON       MOCLDY    59  52  77 NE6       30.13F
WINNIPEG       MOCLDY    68  59  73 NE10      30.05R
LYNN LAKE      CLEAR     68  39  34 MISG      30.11S
CHURCHILL      PTCLDY    52  48  87 N6        30.12S
GILLAM         CLOUDY    57  50  77 N9        30.12S
$$
                ***SASKATCHEWAN***

CITY           SKY/WX    TMP DP  RH WIND       PRES   REMARKS
ESTEVAN        MOCLDY    70  59  68 NE7       30.07F
KINDERSLEY     MOCLDY    66  57  72 E7        30.09F
LLOYDMINSTER   PTSUNNY   70  55  60 S10       30.07F
PRINCE ALBERT  PTCLDY    72  57  60 S2        30.09R
REGINA         MOCLDY    70  52  52 NE9       30.11R
YORKTON        PTCLDY    68  57  68 NE5       30.10S   C1F1C2F2C3F3C4F4C5F5C6F6C7F7C8F8C9F9CaFaCbFbCcFcCdFdCe!


USA.gov is the U.S. government's official web portal to all federal, state and local government web resources and services.